Regional Weather Roundup
Issued by NWS Northern Indiana

Home | Current Version | Previous Version | Text Only | Print | Product List | Glossary On
Versions: 1 2 3 4 5 6 7 8 9 10 11 12 13 14 15 16 17 18 19 20 21 22 23 24 25 26 27 28 29 30 31 32 33 34 35 36 37 38 39 40 41 42 43 44 45 46 47 48 49 50
000
ASUS43 KIWX 260710
RWRIWX

KIWX WEATHER ROUNDUP
NATIONAL WEATHER SERVICE NORTHERN INDIANA
200 AM EST MON JAN 26 2015

NOTE: "FAIR" INDICATES FEW OR NO CLOUDS BELOW 12,000 FEET WITH NO
SIGNIFICANT WEATHER AND/OR OBSTRUCTIONS TO VISIBILITY.

* THESE STATIONS ARE NOT UNDER NWS QUALITY CONTROL. THEY ALSO MAY NOT
  REPORT WEATHER SUCH AS PRECIPITATION OR FOG.

INZ001>027-260800-
NORTHERN INDIANA

CITY           SKY/WX    TMP DP  RH WIND       PRES   REMARKS
GARY*          CLOUDY    25  15  64 NE8       29.98S WCI  17
VALPARAISO     CLEAR     16  11  80 N6        29.96R WCI   7
MICHIGAN CITY* CLEAR     18   9  68 NE3       29.98R
LAPORTE*       PTCLDY    17  13  81 NE7       29.96S WCI   8
KNOX*          CLEAR     17   4  54 N8        29.95R WCI   7
SOUTH BEND     CLEAR     17   9  70 NE9       29.95S WCI   6
GOSHEN         CLEAR     16   7  67 N10       29.94S WCI   4
MONTICELLO*    CLOUDY    24  18  78 NE8       29.91F WCI  15
LOGANSPORT*    CLOUDY    23  19  86 N6        29.92S WCI  16
ROCHESTER*     CLOUDY    27  16  63 NE7       29.92S WCI  19
WARSAW*          N/A     21  10  63 MISG        N/A
ANGOLA*        CLEAR     14   7  73 NE6       29.90F WCI   5
FORT WAYNE     CLOUDY    20  11  68 NE14G20   29.91S WCI   7
HUNTINGTON*    CLOUDY    19   8  60 NE9       29.90S WCI   9
PERU/GRISSOM   CLOUDY    22  15  75 NE8       29.89S WCI  12
MARION*        CLOUDY    20  14  77 NE13G22   29.89S WCI   7

$$
INZ028>050-260800-
CENTRAL INDIANA

CITY           SKY/WX    TMP DP  RH WIND       PRES   REMARKS
LAFAYETTE      CLOUDY    24  19  81 N8        29.93R WCI  15
KOKOMO*        CLOUDY    21  16  79 NE13      29.89F WCI   9
MUNCIE*        CLOUDY    19  14  81 NE16      29.85S WCI   4
INDIANAPOLIS   CLOUDY    20  16  84 N16G23    29.87R WCI   6

$$
MIZ043>046-050>051-056>058-064>065-071>073-077>080-260800-
SOUTHWEST LOWER MICHIGAN

CITY           SKY/WX    TMP DP  RH WIND       PRES   REMARKS
BATTLE CREEK   PTCLDY    16   8  71 NE8       29.95F WCI   5
BENTON HARBOR  CLEAR     15   9  76 E7        29.97F WCI   5
COLDWATER*     CLEAR     14   9  79 NE9       29.92F WCI   2
HILLSDALE*     PTCLDY    14   7  73 NE7       29.90F WCI   4
HOLLAND        CLEAR     15   9  76 E5        29.99F WCI   8
GRAND RAPIDS   CLEAR     14   8  77 NE7       29.98F WCI   4
KALAMAZOO      CLEAR     15   8  73 NE6       29.96F WCI   6
STURGIS*       CLEAR     14   9  79 NE7       29.92F WCI   4
THREE RIVERS*  FAIR      16   9  73 NE8       29.96S WCI   5

$$
OHZ001>008-015>018-024>025-260800-
NORTHWEST OHIO

CITY           SKY/WX    TMP DP  RH WIND       PRES   REMARKS
WAUSEON*       CLOUDY    18   7  62 NE15G22   29.91F WCI   3
DEFIANCE       CLOUDY    19   7  59 NE13G22   29.91F WCI   6
FINDLAY        LGT SNOW  17  13  84 NE16      29.86F FOG     WCI   2
TOLEDO EXPRESS CLOUDY    18   6  59 NE14      29.91F WCI   4
TOLEDO METCALF CLOUDY    17   6  62 NE14G23   29.92F WCI   3
LIMA           LGT SNOW  18  13  80 N15       29.83F WCI   4

$$
AND FOR LAKE MICHIGAN COASTAL AND OPEN LAKE BUOY OBSERVATIONS

STATION/POSITION TEMP    WIND        PRES    VSBY  WAVE
                 AIR SEA DIR/SP/G                  HT/PER
                 (F)     (DEG/KT/KT) (MB)    (MI)  (FT/S)
CALUMET HARBOR    24      20/ 11/ 18   N/A
MICHIGAN CITY     20      40/ 14/ 17   N/A
SAINT JOSEPH      16      20/  2/  5 1015.2F

$$
&&



USA.gov is the U.S. government's official web portal to all federal, state and local government web resources and services.